[Iaude] MPEC F156: 2016 PA101 [a=40.17,e=0.09,i=20.5,H=8.2]

mpec at mpcdb1.cfa.harvard.edu mpec at mpcdb1.cfa.harvard.edu
Thu Mar 29 21:15:20 EDT 2018


M.P.E.C. 2018-F156                               Issued 2018 Mar. 30, 01:11 UT
 
     The Minor Planet Electronic Circulars contain information on unusual
         minor planets and routine data on comets.  They are published
    on behalf of Division F of the International Astronomical Union by the
          Minor Planet Center, Smithsonian Astrophysical Observatory,
                          Cambridge, MA 02138, U.S.A.

             Prepared using the Tamkin Foundation Computer Network

                              MPC at CFA.HARVARD.EDU
            URL https://www.minorplanetcenter.net/    ISSN 1523-6714


                                  2016 PA101
 
Observations:
     K16PA1A*7C2016 08 14.30497102 23 39.83 -05 04 22.1          23.8 z EF156W84
     K16PA1A 7C2016 08 25.36004102 23 28.22 -05 10 01.8          23.9 z EF156W84
     K16PA1A 7C2016 08 26.26380602 23 26.76 -05 10 31.0          23.9 i EF156W84
     K16PA1A 7C2016 08 31.26221702 23 17.31 -05 13 17.0          24.8 g EF156W84
     K16PA1A 7C2016 08 31.30155702 23 17.22 -05 13 18.1          24.0 r EF156W84
     K16PA1A 7C2016 08 31.33303902 23 17.15 -05 13 19.1          24.0 z EF156W84
     K16PA1A 7C2016 09 02.25060102 23 12.91 -05 14 23.9          23.8 i EF156W84
     K16PA1A 7C2016 09 26.23970502 21 54.74 -05 28 12.6          23.8 r EF156W84
     K16PA1A 7C2016 09 26.24205502 21 54.72 -05 28 12.8          23.6 i EF156W84
     K16PA1A 7C2016 11 26.05964702 16 58.15 -05 50 14.4          23.8 r EF156W84
     K16PA1A 7C2016 11 30.05315402 16 40.67 -05 50 21.2          23.7 r EF156W84
     K16PA1A 7C2017 08 17.37437202 29 10.43 -04 17 46.4          23.8 z EF156W84
     K16PA1A 7C2017 08 17.40571602 29 10.42 -04 17 47.2          23.9 r EF156W84
     K16PA1A 7C2017 08 18.28396902 29 09.81 -04 18 12.8          23.9 i EF156W84
     K16PA1A 7C2017 08 24.39888302 29 03.44 -04 21 17.0          24.3 g EF156W84
     K16PA1A 7C2017 08 24.41529502 29 03.41 -04 21 17.3          23.7 i EF156W84
     K16PA1A 7C2017 08 25.36371102 29 02.10 -04 21 47.0          24.1 z EF156W84
     K16PA1A 7C2017 08 29.26557202 28 55.83 -04 23 51.1          23.9 r EF156W84
     K16PA1A 7C2017 08 29.36764102 28 55.66 -04 23 54.0          23.7 z EF156W84
     K16PA1A 7C2017 09 07.24242702 28 36.09 -04 28 47.6          23.9 z EF156W84
     K16PA1A 7C2017 09 14.20486102 28 16.04 -04 32 44.1          24.7 g EF156W84
     K16PA1A 7C2017 09 14.21734402 28 16.00 -04 32 44.6          24.0 r EF156W84
     K16PA1A 7C2017 09 23.24503602 27 44.37 -04 37 53.0          24.1 z EF156W84
     K16PA1A 7C2017 09 23.29831502 27 44.19 -04 37 54.8          24.7 g EF156W84
     K16PA1A 7C2017 09 23.31090202 27 44.13 -04 37 55.1          24.0 r EF156W84
     K16PA1A 7C2017 10 02.28774602 27 07.19 -04 42 53.8          23.9 i EF156W84
     K16PA1A 7C2017 10 10.14317602 26 31.31 -04 47 01.7          23.6 r EF156W84
     K16PA1A 7C2017 10 10.25180902 26 30.78 -04 47 05.2          23.9 i EF156W84
     K16PA1A 7C2017 10 13.21788102 26 16.55 -04 48 33.9          24.5 g EF156W84
     K16PA1A 7C2017 10 14.16862902 26 11.90 -04 49 01.9          24.0 r EF156W84
     K16PA1A 7C2017 10 14.19955802 26 11.73 -04 49 03.0          23.9 i EF156W84
     K16PA1A 7C2017 10 17.28420802 25 56.47 -04 50 30.9          24.4 g EF156W84
     K16PA1A 7C2017 10 26.23854802 25 10.80 -04 54 23.5          24.0 r EF156W84
     K16PA1A 7C2017 10 26.25843102 25 10.70 -04 54 23.9          24.0 i EF156W84
     K16PA1A 7C2017 11 07.12925002 24 09.14 -04 58 29.3          23.9 i EF156W84
     K16PA1A 7C2017 11 14.08521902 23 33.62 -05 00 13.8          24.7 g EF156W84
     K16PA1A 7C2017 11 14.09776502 23 33.56 -05 00 14.2          23.9 r EF156W84
     K16PA1A 7C2017 11 14.11763402 23 33.45 -05 00 14.6          24.1 i EF156W84
     K16PA1A 7C2017 11 14.15293502 23 33.32 -05 00 14.7          24.2 z EF156W84
     K16PA1A 7C2017 11 19.17051402 23 08.44 -05 01 10.2          24.3 g EF156W84
     K16PA1A 7C2017 11 19.18898502 23 08.33 -05 01 10.5          24.1 r EF156W84
     K16PA1A 7C2017 11 19.22261102 23 08.16 -05 01 10.9          23.7 i EF156W84
     K16PA1A 7C2017 11 25.10483002 22 40.21 -05 01 53.5          23.9 r EF156W84
     K16PA1A 7C2017 11 25.12465002 22 40.13 -05 01 53.4          23.9 i EF156W84
     K16PA1A 7C2017 11 29.13095702 22 22.00 -05 02 08.0          24.2 i EF156W84
     K16PA1A 7C2017 12 14.04680002 21 22.97 -05 01 16.9          23.9 r EF156W84
     K16PA1A 7C2017 12 22.04825802 20 58.07 -04 59 40.7          23.4 i EF156W84
     K16PA1A 7C2017 12 22.05225202 20 58.04 -04 59 40.7          23.5 z EF156W84
     K16PA1A 7C2017 12 26.05910302 20 47.59 -04 58 34.8          23.3 z EF156W84
     K16PA1A 7C2018 01 11.04602502 20 21.02 -04 52 19.8          23.8 r EF156W84
     K16PA1A 7C2018 01 11.04838602 20 21.01 -04 52 19.6          23.5 i EF156W84
 
Observer details:
W84 Cerro Tololo-DECam.  Observers K. Stringer, J. Marshall, C. Wethers,
    N. Sevilla, M. Manera, K. Vivas, F. Tarsitano, A. Kremin, R. Kron, B. Nord,
    Y. Zhang, A. Ferte, S. Hamilton, R. Bhatawdekar, J. Annis, E. Cook,
    M. Sauseda, E. Balbinot, L. Secco, W. Wester, S. Kent, M. Johnson, M. Sako,
    S. Allam, D. Tucker, D. Hollowood, N. Weaverdyck, K. Romer, S. Bhargava,
    N. Shipp, G. Khullar, B. Yanny, M. Gill, M. Murphy, K. Furnell,
    R. Wilkinson, I. Friswell, H.-Y. Wu, A. Smith, D. Gulledge, T. Li,
    R. Capasso, F. Paz, S. Everett, R. Cawthon, M. Medford, B. Soergel,
    D. Goldstein, N. Kuropatkin, D. DePoy, T. Prochaska, M. Gelman.  Measurers
    L. Markwardt, D. Gerdes.  4.0-m f/2.87 reflector + CCD.
 
Orbital elements:
2016 PA101
Epoch 2018 Mar. 23.0 TT = JDT 2458200.5                 MPC
M 315.03154              (2000.0)            P               Q
n   0.00387089     Peri.  352.48979     +0.09928886     -0.93146152
a  40.1724753      Node    91.33555     +0.93018572     -0.03805105
e   0.0864602      Incl.   20.49498     +0.35340663     +0.36184465
P 255              H    8.2           G   0.15           U   4
Residuals in seconds of arc
160814 W84  0.4-  0.2+    170829 W84  0.1+  0.3-    171107 W84  0.3+  0.0
160825 W84  0.1+  0.0     170829 W84  0.4+  0.1+    171114 W84  0.1-  0.2+
160826 W84  0.0   0.1+    170907 W84  0.1-  0.2-    171114 W84  0.1-  0.0
160831 W84  0.2+  0.5-    170914 W84  0.2-  0.0     171114 W84  0.2-  0.1-
160831 W84  0.1+  0.2-    170914 W84  0.2-  0.0     171114 W84  0.6+  0.2+
160831 W84  0.1+  0.2-    170923 W84  0.1-  0.1-    171119 W84  0.3+  0.2+
160902 W84  0.1+  0.2-    170923 W84  0.4+  0.1-    171119 W84  0.0   0.1+
160926 W84  0.1+  0.4+    170923 W84  0.2+  0.0     171119 W84  0.1-  0.0
160926 W84  0.1-  0.3+    171002 W84  0.0   0.2+    171125 W84  0.2-  0.2-
161126 W84  0.1-  0.2-    171010 W84  0.1-  0.2+    171125 W84  0.0   0.0
161130 W84  0.2-  0.5+    171010 W84  0.2-  0.0     171129 W84  0.1-  0.1-
170817 W84  0.3-  0.1+    171013 W84  0.3+  0.1+    171214 W84  0.2-  0.1+
170817 W84  0.1-  0.2+    171014 W84  0.1+  0.0     171222 W84  0.5+  0.1+
170818 W84  0.1-  0.0     171014 W84  0.1-  0.2-    171222 W84  0.2+  0.0
170824 W84  0.0   0.2-    171017 W84  0.2+  0.1-    171226 W84  0.1-  0.1-
170824 W84  0.1-  0.0     171026 W84  0.1-  0.0     180111 W84  0.3-  0.1-
170825 W84  0.1-  0.1-    171026 W84  0.1-  0.1+    180111 W84  0.4-  0.0

Ephemeris:
2016 PA101               a,e,i = 40.17, 0.09, 20                 q = 36.699
Date    TT    R. A. (2000) Decl.     Delta      r     Elong.  Phase     V
2018 02 28    02 21 36.8 -04 20 12  38.4507 37.8839    54.5     1.2    24.2
...
2018 03 15    02 22 43.9 -04 08 09  38.6252 37.8811    41.1     1.0    24.2
...
2018 03 23    02 23 26.2 -04 01 46  38.6989 37.8796    34.3     0.8    24.2
...
2018 03 29    02 24 00.3 -03 57 03  38.7441 37.8785    29.5     0.7    24.2
2018 03 30    02 24 06.2 -03 56 17  38.7508 37.8783    28.7     0.7    24.2
2018 03 31    02 24 12.1 -03 55 31  38.7572 37.8781    28.0     0.7    24.2
...
2018 04 06    02 24 48.4 -03 50 58  38.7905 37.8770    23.8     0.6    24.1
...
2018 04 14    02 25 38.9 -03 45 11  38.8202 37.8755    19.4     0.5    24.1
...
2018 04 29    02 27 17.2 -03 35 23  38.8296 37.8727    17.9     0.5    24.1

A. U. Tomatic                (C) Copyright 2018 MPC           M.P.E.C. 2018-F156



More information about the Iaude mailing list